#timestamp,LO_Frequency,Hit,StdDev 
1505473215.7,286047001.1,N,1.4
1505473235.6,286046999.0,N,1.4
1505473255.4,286046999.5,N,1.4
1505473275.3,286046998.4,N,1.4
1505473295.1,286046998.5,N,1.4
1505473296.0,286046998.5,N,1.4
1505473315.8,286047001.1,N,1.4
1505473335.7,286047001.1,N,1.4
1505473355.5,286046998.5,N,1.4
1505473375.3,286047001.1,N,1.4
1505473395.2,286046999.9,N,1.4
1505473415.0,286047001.0,N,1.3
1505473415.9,286047001.0,N,1.3
1505473435.8,286047000.2,N,1.3
1505473455.6,286047000.1,N,1.3
1505473475.4,286047001.1,N,1.3
1505473495.3,286047000.8,N,1.3
1505473515.1,286047002.7,N,1.3
1505473535.9,286047002.8,N,1.3
1505473555.7,286047001.0,N,1.3
1505473575.5,286047000.8,N,1.3
1505473595.4,286047000.3,N,1.3
1505473615.2,286047000.0,N,1.3
1505473635.0,286047000.4,N,1.2
1505473636.0,286047000.4,N,1.2
1505473655.8,286047000.4,N,1.1
1505473675.6,286047000.7,N,1.1
1505473695.5,286046998.6,N,1.1
1505473715.3,286046998.1,N,1.2
1505473735.1,286047000.8,N,1.2
1505473755.9,286046998.5,N,1.2
1505473775.7,286047001.1,N,1.2
1505473795.6,286046998.7,N,1.2
1505473815.4,286046998.5,N,1.2
1505473835.2,286046998.2,N,1.2
1505473855.1,286046998.4,N,1.2
1505473856.0,286046998.4,N,1.3
1505473875.8,286046999.0,N,1.3
1505473895.7,286047000.0,N,1.2
1505473915.5,286047001.0,N,1.2
1505473935.3,286047000.5,N,1.2
1505473955.2,286047000.0,N,1.2
1505473975.9,286047001.0,N,1.2
1505473995.7,286046998.1,N,1.3
1505474015.6,286046998.2,N,1.3
1505474035.4,286047001.1,N,1.3
1505474055.3,286046999.7,N,1.3
1505474075.1,286047000.3,N,1.2
1505474076.0,286047000.3,N,1.1
1505474095.8,286047000.5,N,1.1
1505474115.7,286047000.8,N,1.1
1505474135.5,286047001.1,N,1.1
1505474155.3,286047000.4,N,1.1
1505474175.2,286046999.9,N,1.1
1505474195.0,286047000.4,N,1.1
1505474195.9,286047000.4,N,1.1
1505474215.8,286047000.8,N,1.1
1505474235.6,286047000.7,N,1.1
1505474255.4,286047002.7,N,1.1
1505474275.3,286046999.7,N,1.1
1505474295.1,286047002.1,N,1.2
1505474315.9,286047002.8,N,1.2
1505474335.7,286047002.5,N,1.3
1505474355.5,286047001.7,N,1.3
1505474375.4,286047001.9,N,1.2
1505474395.2,286047002.7,N,1.2
1505474415.1,286047002.5,N,1.2
1505474416.0,286047002.5,N,1.2
1505474435.8,286046998.1,N,1.3
1505474455.6,286046998.2,N,1.4
1505474475.5,286046998.6,N,1.4
1505474495.3,286047001.1,N,1.4
1505474515.1,286047001.2,N,1.4
1505474535.9,286046999.2,N,1.4
1505474555.7,286046999.2,N,1.3
1505474575.6,286046999.1,N,1.4
1505474595.4,286046998.7,N,1.4
1505474615.2,286046998.3,N,1.5
1505474635.1,286046996.7,N,1.6
1505474636.0,286046996.7,N,1.7
1505474655.8,286046997.4,N,1.8
1505474675.7,286046999.1,N,1.8
1505474695.5,286046999.1,N,1.8
1505474715.3,286046996.8,N,1.9
1505474735.2,286046996.9,N,2.0
1505474755.0,286046995.3,N,2.2
1505474755.9,286046995.3,N,2.3
1505474775.8,286046995.8,N,2.4
1505474795.6,286046996.0,N,2.4
1505474815.4,286046996.2,N,2.4
1505474835.3,286046995.7,N,2.4
1505474855.1,286046994.1,N,2.5
1505474875.8,286046993.6,N,2.5
1505474895.7,286046993.5,N,2.6
1505474915.5,286046993.8,N,2.6
1505474935.4,286046993.7,N,2.5
1505474955.2,286046994.2,N,2.4
1505474975.0,286046994.1,N,2.2
1505474975.9,286046994.1,N,2.3
1505474995.8,286046993.7,N,2.3
1505475015.6,286046994.0,N,2.3
1505475035.5,286046993.6,N,2.2
1505475055.3,286046993.6,N,2.0
1505475075.1,286046994.2,N,2.0
1505475095.9,286046994.0,Y,0.0
1505475115.7,286046999.0,P,1.6
1505475135.6,286046999.6,N,1.7
1505475155.4,286046997.3,N,1.5
1505475175.2,286046997.8,N,1.3
1505475195.1,286046997.3,N,1.3
1505475196.0,286046997.3,N,1.2
1505475215.8,286046997.5,N,1.1
1505475235.7,286046997.5,N,1.0
1505475255.5,286046995.5,Y,0.0
1505475275.3,286046998.7,P,0.5
1505475295.2,286046996.5,P,0.9
1505475315.0,286046996.8,P,0.9
1505475315.9,286046996.8,Y,0.0
1505475335.8,286047001.2,P,1.9
1505475355.6,286047000.5,N,1.6
1505475375.4,286046999.7,N,1.4
1505475395.3,286047000.9,N,1.4
1505475415.1,286047000.6,N,1.3
1505475435.8,286046998.3,N,1.3
1505475455.7,286047001.0,N,1.3
1505475475.5,286047000.7,N,1.2
1505475495.4,286047001.0,N,1.2
1505475515.2,286047001.1,N,1.2
1505475535.0,286046998.2,N,1.3
1505475535.9,286046998.2,N,1.3
1505475555.8,286046998.6,N,1.3
1505475575.6,286046999.1,N,1.3
1505475595.4,286046998.8,N,1.3
1505475615.3,286046999.2,N,1.2
1505475635.1,286046996.8,N,1.4
1505475655.9,286046996.9,N,1.5
1505475675.7,286046999.6,N,1.4
1505475695.5,286046999.6,N,1.4
1505475715.4,286046998.3,N,1.4
1505475735.2,286046999.6,N,1.3
1505475755.1,286046996.7,N,1.4
1505475756.0,286046996.7,N,1.5
1505475775.8,286046997.1,N,1.5
1505475795.6,286046998.2,N,1.5
1505475815.5,286046998.7,N,1.5
1505475835.3,286046999.0,N,1.4
1505475855.1,286046999.3,N,1.4
1505475875.9,286046998.7,N,1.4
1505475895.7,286046999.4,N,1.3
1505475915.6,286047000.8,N,1.3
1505475935.4,286047000.5,N,1.4
1505475955.2,286046999.2,N,1.3
1505475975.1,286046998.7,N,1.3
1505475976.0,286046998.7,N,1.3
1505475995.8,286046999.0,N,1.2
1505476015.7,286046999.3,N,1.2
1505476035.5,286046997.1,N,1.1
1505476055.3,286046999.0,N,1.0
1505476075.2,286046996.9,N,1.1
1505476095.9,286046997.4,N,1.1
1505476115.7,286046996.6,Y,0.0
1505476135.6,286046998.8,P,0.1
1505476155.4,286046999.6,P,0.4
1505476175.3,286046999.5,N,0.4
1505476195.1,286046998.4,Y,0.0
1505476215.8,286047000.5,P,0.7
1505476235.7,286047001.0,N,0.8
1505476255.5,286046998.5,N,1.0
1505476275.4,286046998.4,N,1.1
1505476295.2,286047000.6,N,1.0
1505476315.0,286047000.2,N,1.0
1505476315.9,286047000.2,N,0.9
1505476335.8,286047000.2,N,0.9
1505476355.6,286047000.7,N,0.9
1505476375.4,286047000.4,N,0.9
1505476395.3,286047000.5,N,0.8
1505476415.1,286047000.8,N,0.8
1505476435.9,286046998.1,N,0.9
1505476455.7,286046998.7,N,1.0
1505476475.5,286046998.3,N,1.0
1505476495.4,286046998.5,N,1.0
1505476515.2,286046999.3,N,1.0
1505476535.0,286046998.8,N,1.0
1505476536.0,286046998.8,N,1.0
1505476555.8,286046998.6,N,1.0
1505476575.6,286046998.8,N,1.0
1505476595.5,286046998.4,N,1.0
1505476615.3,286046999.6,N,1.0
1505476635.1,286046996.5,Y,0.0
1505476655.9,286046999.2,P,0.1
1505476675.7,286046999.3,P,0.1
1505476695.6,286046999.6,P,0.2
1505476715.4,286046996.5,Y,0.0
1505476735.2,286046998.9,P,0.2
1505476755.1,286046998.7,P,0.3
1505476756.0,286046998.7,P,0.3
1505476775.8,286046998.1,Y,0.0
1505476795.7,286047001.0,P,1.0
